[Date Prev][Date Next][Thread Prev][Thread Next] - [Date Index][Thread Index][Author Index]
2 Line ISS Keps 6-3
- Subject: [sarex] 2 Line ISS Keps 6-3
- From: "Dave Larsen PhD" <doc@xxxxxxxxxxx>
- Date: Tue, 3 Jun 2003 03:06:36 -0700
ISS
1 25544U 98067A 03154.33778006 .00013752 00000-0 17816-3 0 756
2 25544 51.6328 89.8277 0006488 207.2056 295.6050 15.59175709258849
----
Via the sarex mailing list at AMSAT.ORG courtesy of AMSAT-NA.
To unsubscribe, send "unsubscribe sarex" to Majordomo@amsat.org
AMSAT Home